Alpbach, Austria 16 day weather forecast

Slopes altitude range 1000 m - 2100m

Number of lifts: 46 Pistes: 145km

In some cases the lift and piste totals shown are for the ski domain (e.g. Three Valleys) rather than individual resort (e.g. Courchevel)

Overview

The 16 day weather forecast is fully updated 4 times every day.

    • Mon 22 APR 2019
    • Mon 22
    • 10C 22C
    • Tue 23 APR 2019
    • Tue 23
    • 10C 19C
    • Wed 24 APR 2019
    • Wed 24
    • 11C 20C
    • Thu 25 APR 2019
    • Thu 25
    • 11C 21C
    • Fri 26 APR 2019
    • Fri 26
    • 6C 14C
    • Sat 27 APR 2019
    • Sat 27
    • 3C 13C
    • Sun 28 APR 2019
    • Sun 28
    • 8C 19C
    • Mon 29 APR 2019
    • Mon 29
    • 10C 21C
    • Tue 30 APR 2019
    • Tue 30
    • 6C 12C
    • Wed 01 MAY 2019
    • Wed 01
    • 6C 12C
    • Thu 02 MAY 2019
    • Thu 02
    • 2C 15C
    • Fri 03 MAY 2019
    • Fri 03
    • 2C 18C
    • Sat 04 MAY 2019
    • Sat 04
    • 6C 22C
    • Sun 05 MAY 2019
    • Sun 05
    • 9C 25C
    • Mon 06 MAY 2019
    • Mon 06
    • 8C 12C
    • Tue 07 MAY 2019
    • Tue 07
    • 5C 10C

Date:

Time Type 0°C level Temp Chill Snow Cloud Speed Gust Dir Press
3:00 3111m 6°C 6_6 0cm 54% 6mph 7mph 1016mB
6:00 3137m 6°C 6_6 0cm 62% 6mph 10mph 1014mB
9:00 3172m 10°C 10_3 0cm 33% 3mph 5mph 1011mB
12:00 3021m 22°C 22_3 0cm 30% 3mph 6mph 1008mB
15:00 3055m 22°C 22_4 0cm 7% 4mph 7mph 1006mB
18:00 3131m 22°C 22_3 0cm 5% 3mph 4mph 1006mB
21:00 3221m 8°C 8_6 0cm 32% 6mph 9mph 1006mB
0:00 3253m 7°C 7_6 0cm 43% 6mph 9mph 1005mB
3:00 3090m 6°C 6_6 0cm 60% 6mph 9mph 1004mB
6:00 2951m 6°C 6_5 0cm 76% 5mph 11mph 1002mB
9:00 2854m 10°C 10_5 0cm 85% 5mph 9mph 1001mB
12:00 2777m 19°C 19_6 0cm 83% 6mph 12mph 1000mB
15:00 2827m 19°C 19_7 0cm 87% 7mph 11mph 1000mB
18:00 2841m 19°C 19_5 0cm 86% 5mph 7mph 1002mB
21:00 3027m 9°C 9_5 0cm 91% 5mph 9mph 1004mB
0:00 2944m 8°C 8_6 0cm 93% 6mph 10mph 1005mB
3:00 2951m 7°C 7_6 0cm 69% 6mph 11mph 1006mB
6:00 2924m 7°C 7_7 0cm 36% 7mph 13mph 1008mB
9:00 2951m 11°C 11_7 0cm 5% 7mph 13mph 1008mB
12:00 3108m 20°C 20_9 0cm 40% 9mph 14mph 1008mB
15:00 3516m 20°C 20_9 0cm 48% 9mph 18mph 1007mB
18:00 3501m 20°C 20_6 0cm 74% 6mph 7mph 1009mB
21:00 2841m 8°C 8_3 0cm 95% 3mph 4mph 1015mB
0:00 2941m 6°C 6_2 0cm 94% 2mph 3mph 1017mB
3:00 3410m 5°C 5_5 0cm 12% 5mph 6mph 1016mB
6:00 3434m 5°C 5_7 0cm 18% 7mph 14mph 1015mB
9:00 3431m 11°C 11_8 0cm 28% 8mph 16mph 1014mB
12:00 3328m 21°C 21_9 0cm 14% 9mph 16mph 1013mB
15:00 3340m 21°C 21_8 0cm 8% 8mph 13mph 1013mB
18:00 3303m 21°C 21_6 0cm 38% 6mph 13mph 1014mB
21:00 3289m 11°C 11_7 0cm 96% 7mph 12mph 1015mB
0:00 3137m 11°C 11_7 0cm 98% 7mph 13mph 1014mB
3:00 2955m 8°C 8_6 0cm 43% 6mph 7mph 1014mB
6:00 2707m 7°C 7_2 0cm 23% 2mph 3mph 1014mB
9:00 2514m 11°C 11_6 0cm 8% 6mph 5mph 1015mB
12:00 1642m 14°C 14_8 0cm 41% 8mph 14mph 1017mB
15:00 1352m 6°C 6_2 0cm 100% 2mph 4mph 1019mB
18:00 1487m 6°C 6_4 0cm 100% 4mph 7mph 1022mB
21:00 1535m 2°C 2_4 1cm 98% 4mph 5mph 1024mB
0:00 1442m 2°C 2_4 0cm 98% 4mph 7mph 1024mB
3:00 1518m 2°C 2_4 0cm 99% 4mph 7mph 1026mB
6:00 1481m 2°C 2_3 0cm 98% 3mph 5mph 1027mB
9:00 1587m 3°C 3_2 0cm 51% 2mph 4mph 1026mB
12:00 1844m 13°C 13_2 0cm 35% 2mph 6mph 1024mB
15:00 2020m 13°C 13_2 0cm 25% 2mph 8mph 1024mB
18:00 2027m 13°C 13_3 0cm 35% 3mph 4mph 1026mB
21:00 2113m 4°C 4_5 0cm 60% 5mph 6mph 1028mB
0:00 2250m 3°C 3_5 0cm 43% 5mph 6mph 1028mB
3:00 2388m 3°C 3_5 0cm 37% 5mph 6mph 1026mB
6:00 2489m 3°C 3_4 0cm 62% 4mph 6mph 1025mB
9:00 2531m 8°C 8_1 0cm 62% 1mph 4mph 1023mB
12:00 2506m 19°C 19_2 0cm 61% 2mph 6mph 1022mB
15:00 2682m 17°C 17_2 0cm 52% 2mph 4mph 1020mB
18:00 2712m 17°C 17_2 0cm 37% 2mph 2mph 1021mB
21:00 2665m 7°C 7_3 0cm 27% 3mph 4mph 1022mB
0:00 2764m 6°C 6_4 0cm 30% 4mph 5mph 1021mB
3:00 2812m 5°C 5_5 0cm 34% 5mph 5mph 1019mB
6:00 2731m 5°C 5_4 0cm 46% 4mph 7mph 1016mB
9:00 2720m 10°C 10_1 0cm 55% 1mph 3mph 1013mB
12:00 2765m 21°C 21_3 0cm 58% 3mph 7mph 1009mB
15:00 2735m 22°C 22_11 0cm 95% 11mph 31mph 1006mB
18:00 2615m 22°C 22_12 0cm 97% 12mph 31mph 1007mB
21:00 2389m 11°C 11_9 0cm 99% 9mph 30mph 1008mB
0:00 1929m 9°C 9_11 0cm 99% 11mph 26mph 1007mB
3:00 1552m 7°C 7_8 0cm 97% 8mph 28mph 1007mB
6:00 1360m 6°C 6_10 0cm 98% 10mph 27mph 1008mB
9:00 1449m 6°C 6_13 0cm 100% 13mph 29mph 1008mB
12:00 1708m 12°C 12_18 0cm 90% 18mph 29mph 1008mB
15:00 1564m 12°C 12_20 0cm 37% 20mph 35mph 1009mB
18:00 1483m 12°C 12_11 0cm 29% 11mph 25mph 1011mB
21:00 1459m 5°C 5_8 0cm 2% 8mph 25mph 1013mB
0:00 1414m 4°C 4_7 0cm 17% 7mph 24mph 1014mB
3:00 1351m 3°C 3_6 0cm 25% 6mph 15mph 1015mB
6:00 1303m 3°C 3_8 0cm 16% 8mph 16mph 1015mB
9:00 1369m 6°C 6_9 0cm 48% 9mph 14mph 1014mB
12:00 1579m 12°C 12_9 0cm 45% 9mph 14mph 1012mB
15:00 1689m 12°C 12_9 0cm 88% 9mph 15mph 1011mB
18:00 1674m 12°C 12_4 0cm 48% 4mph 5mph 1013mB
21:00 1608m 5°C 5_4 0cm 79% 4mph 6mph 1015mB
0:00 1563m 3°C 3_5 0cm 43% 5mph 7mph 1014mB
Afternoon 0.00520833mm 0 1828m 15°C 15_4 0cm 60% 4mph 6mph 1009mB
Morning 0.0260417mm 0.3125 1963m 3°C 3_2 0cm 34% 2mph 3mph 1014mB
Afternoon 0mm 0 2317m 18°C 18_6 0cm 13% 6mph 8mph 1008mB
Morning 0mm 0 2755m 7°C 7_5 0cm 46% 5mph 13mph 1009mB
Afternoon 0mm 0 2886m 22°C 22_6 0cm 71% 6mph 9mph 1003mB
Morning 0mm 0 3225m 11°C 11_5 0cm 89% 5mph 8mph 1002mB
Afternoon 0mm 0 3104m 25°C 25_5 0cm 11% 5mph 10mph 998mB
Morning 0.0364583mm 0.25 2854m 11°C 11_14 0cm 62% 14mph 27mph 994mB
Afternoon 0.489583mm 0.0625 2024m 12°C 12_12 0cm 100% 12mph 35mph 999mB
Morning 0.140625mm 0 1407m 7°C 7_16 0cm 100% 16mph 35mph 1009mB
Afternoon 0.015625mm 0.1875 1392m 10°C 10_12 0cm 93% 12mph 18mph 1015mB
Morning 0.0208333mm 0.0625 1261m 2°C 2_5 0cm 65% 5mph 8mph 1022mB

16 day outlook at a glance

Forecast issued: 22/04/2019 08:18:13

Chat

Your comments and questions. In a resort? Let us know what it's like!


Characters left 250

For terms and conditions see Readers Comments on the Cookie and privacy policy page.